Home > Weather > Bergisch Gladbach > Past weeks

Flag for Germany Weather for the Past 2 Weeks in Bergisch Gladbach, North Rhine-Westphalia, Germany

Now
54 °F

Partly sunny.


Feels Like: 50 °F
Forecast: 35 / 60 °F
Wind: 10 mph from Northwest

Location: Koeln / Bonn

Current Time: May 3, 2016 at 11:26:52 AM

Latest Report: May 3, 2016 at 10:20 AM


Visibility: N/A

Pressure: 30.15 "Hg

Humidity: 77%

Dew Point: 46 °F

Location of Bergisch GladbachLocation

Historic Weather in Bergisch Gladbach — Graph

°F

Bergisch Gladbach Temperature Yesterday

Maximum temperature yesterday: 70 °F (at 5:50 PM)
Minimum temperature yesterday: 37 °F (at 5:50 AM)
Average temperature yesterday: 54 °F

High & Low Weather Summary for the Past Weeks

 TemperatureHumidityPressure
High70 °F (Apr 21, 3:50 PM)100% (Apr 24, 11:50 PM)30.45 "Hg (Apr 24, 11:50 PM)
Low30 °F (Apr 20, 6:50 AM)23% (Apr 21, 4:50 PM)29.53 "Hg (Apr 26, 10:50 AM)
Average47 °F68%30.04 "Hg
* Reported Apr 18 10:20 AM — May 3 10:20 AM, Bergisch Gladbach, Weather by CustomWeather, © 2016

Note: Actual official high and low records may vary slightly from our data, if they occured in-between our weather recording intervals... More about our weather records

Advertising

Bergisch Gladbach Weather History for the Previous 24 Hours

Scroll right to see more
 ConditionsComfort  
Time TempWeatherWind HumidityBarometerVisibility
10:20 AM
Tue, May 3
54 °FPartly sunny.10 mph77%30.15 "HgN/A
9:50 AM50 °FPartly sunny.9 mph82%30.15 "HgN/A
9:20 AM50 °FPartly sunny.10 mph82%30.15 "HgN/A
8:50 AM48 °FPartly sunny.13 mph94%30.12 "HgN/A
8:20 AM48 °FLight rain. Partly sunny.14 mph94%30.12 "HgN/A
7:20 AM50 °FRain. Partly sunny.8 mph94%30.09 "Hg6 mi
6:50 AM48 °FLight rain. Passing clouds.2 mph94%30.07 "HgN/A
6:20 AM50 °FLight rain. Passing clouds.2 mph82%30.07 "HgN/A
5:50 AM50 °FLight rain. Passing clouds.3 mph76%30.07 "HgN/A
5:20 AM50 °FPassing clouds.2 mph76%30.07 "HgN/A
4:20 AM52 °FPassing clouds.1 mph72%30.09 "HgN/A
3:20 AM50 °FClear.1 mph76%30.09 "Hg10 mi
2:50 AM50 °FClear.1 mph76%30.09 "Hg10 mi
2:20 AM50 °FPartly cloudy.1 mph76%30.09 "HgN/A
1:50 AM50 °FClear.1 mph76%30.09 "Hg10 mi
1:20 AM52 °FClear.2 mph77%30.09 "Hg10 mi
12:50 AM52 °FClear.1 mph77%30.09 "Hg10 mi
12:20 AM54 °FClear.2 mph72%30.09 "Hg10 mi
11:50 PM
Mon, May 2
54 °FClear.2 mph72%30.09 "Hg10 mi
11:20 PM54 °FClear.1 mph72%30.09 "Hg10 mi
10:50 PM54 °FClear.1 mph72%30.09 "Hg10 mi
10:20 PM57 °FClear.2 mph63%30.09 "Hg10 mi
9:50 PM57 °FSunny.5 mph63%30.09 "Hg10 mi
9:20 PM57 °FSunny.3 mph59%30.09 "Hg10 mi
8:50 PM59 °FSunny.5 mph55%30.09 "Hg10 mi
8:20 PM61 °FSunny.6 mph52%30.09 "Hg10 mi
7:50 PM64 °FPassing clouds.5 mph43%30.09 "HgN/A
7:20 PM64 °FPassing clouds.5 mph43%30.09 "HgN/A
6:50 PM66 °FPassing clouds.3 mph37%30.09 "HgN/A
6:20 PM68 °FPassing clouds.5 mph33%30.09 "HgN/A
5:50 PM70 °FPassing clouds.3 mph31%30.12 "HgN/A
5:20 PM68 °FPassing clouds.6 mph35%30.12 "HgN/A
4:50 PM68 °FSunny.7 mph33%30.12 "Hg10 mi
4:20 PM68 °FSunny.6 mph33%30.15 "Hg10 mi
3:50 PM66 °FSunny.8 mph32%30.15 "Hg10 mi
3:20 PM66 °FPassing clouds.7 mph37%30.15 "HgN/A
2:50 PM66 °FPassing clouds.6 mph40%30.18 "HgN/A
2:20 PM66 °FSunny.3 mph37%30.18 "Hg10 mi
1:50 PM64 °FPassing clouds.8 mph43%30.21 "HgN/A
1:20 PM64 °FSunny.5 mph34%30.21 "Hg10 mi
12:50 PM64 °FSunny.6 mph40%30.21 "Hg10 mi
12:20 PM64 °FScattered clouds.6 mph43%30.24 "HgN/A
11:50 AM63 °FScattered clouds.2 mph49%30.24 "HgN/A
11:20 AM61 °FScattered clouds.3 mph52%30.24 "HgN/A
Weather by CustomWeather, © 2016

See weather overviewHow to use our weather pages